This is the latest recevied weather packets stored in our database for station/object WW5JC. If no packets are shown the sender has not sent any weather packets the latest 10 day(s).
| Time | Temp. | Humidity | Pressure | Rain* | Wind** | Luminosity | Snow |
|---|---|---|---|---|---|---|---|
| 1777760264 | 23.33° C | 42% | 1020.5 hPa | 0 mm | - | 315 W/m² | - |
| 1777759961 | 23.33° C | 40% | 1020.7 hPa | 0 mm | - | 336 W/m² | - |
| 1777759658 | 23.33° C | 40% | 1020.7 hPa | 0 mm | - | 353 W/m² | - |
| 1777759353 | 23.33° C | 40% | 1020.8 hPa | 0 mm | - | 104 W/m² | - |
| 1777759050 | 23.33° C | 39% | 1020.8 hPa | 0 mm | - | 386 W/m² | - |
| 1777758748 | 23.33° C | 41% | 1020.8 hPa | 0 mm | - | 397 W/m² | - |
| 1777758445 | 22.78° C | 40% | 1020.7 hPa | 0 mm | - | 414 W/m² | - |
| 1777758142 | 23.33° C | 44% | 1020.7 hPa | 0 mm | - | 435 W/m² | - |
| 1777757839 | 23.89° C | 41% | 1020.7 hPa | 0 mm | - | 205 W/m² | - |
| 1777757536 | 23.89° C | 40% | 1020.8 hPa | 0 mm | - | 458 W/m² | - |
| 1777757235 | 23.89° C | 38% | 1020.7 hPa | 0 mm | - | 464 W/m² | - |
| 1777756932 | 23.33° C | 42% | 1020.9 hPa | 0 mm | - | 477 W/m² | - |
| 1777756629 | 23.33° C | 42% | 1020.8 hPa | 0 mm | - | 490 W/m² | - |
| 1777756326 | 23.33° C | 39% | 1021.2 hPa | 0 mm | - | 509 W/m² | - |
| 1777756023 | 23.89° C | 42% | 1021.1 hPa | 0 mm | - | 526 W/m² | - |
| 1777755720 | 23.89° C | 43% | 1021.2 hPa | 0 mm | - | 526 W/m² | - |
| 1777755417 | 23.33° C | 43% | 1021.4 hPa | 0 mm | - | 533 W/m² | - |
| 1777755113 | 22.78° C | 43% | 1021.4 hPa | 0 mm | - | 549 W/m² | - |
| 1777754810 | 22.78° C | 42% | 1021.4 hPa | 0 mm | - | 560 W/m² | - |
| 1777754508 | 23.33° C | 40% | 1021.5 hPa | 0 mm | - | 582 W/m² | - |
| 1777754204 | 23.33° C | 41% | 1021.5 hPa | 0 mm | - | 590 W/m² | - |
| 1777753903 | 23.33° C | 44% | 1021.5 hPa | 0 mm | - | 606 W/m² | - |
| 1777753597 | 22.78° C | 40% | 1021.7 hPa | 0 mm | - | 621 W/m² | - |
| 1777753296 | 23.89° C | 38% | 1021.6 hPa | 0 mm | - | 627 W/m² | - |
| 1777752991 | 22.78° C | 39% | 1021.8 hPa | 0 mm | - | 625 W/m² | - |
* Rain latest hour (hover to see other rain measurements)
** Current wind speed in m/s (hover to see current wind gust speed)